sat.trackr.live / text

‹ back to catalog

STARLINK-5988

NORAD 56320 · 2023-058D

PAYLOAD ACTIVE UNKNOWN

§ Identity

Operator
Country
US
Launch date
2023-04-27
Launch site
AFWTR
Launch vehicle
Mass (kg)
RCS (m²)

Purposes: comms

External: N2YO · Heavens-Above · Gunter

§ Orbital elements

Epoch: 2026-09-20T22:00:03.000096Z

Period
94.77 min
Inclination
97.2855°
Eccentricity
0.0001678
Mean motion
15.19410886 rev/d
Perigee alt
506.5 km
Apogee alt
508.8 km
Semi-major
6,885.8 km
B*
3.1858e-2
RAAN
257.7675°
Arg perigee
87.2254°
Mean anomaly
341.4864°
Rev number
569

§ Raw data

STARLINK-59881 56320U 23058D   26263.91670139  .00724331  00000+0  31858-1 0  99942 56320  97.2855 257.7675 0001678  87.2254 341.4864 15.19410886  5696

JSON: /api/v1/satellites/56320 · /tle

For live sub-satellite position, see the globe view (requires WebGL).

§ Visibility from observer

Set your observer location to see the next 7 days of passes ≥ 10°. The values pass through the URL so the page stays shareable.

No JS? Fill the form by hand. The geolocation button needs JavaScript.